Theta_e
348 348 348 347 347 349 349 351 349 345 339 332 332 334 336 337 337 338 337 335 333 332 330 328 328 331 335 337 337 338 338 337 335 332 329 327 326 324
347 348 348 349 349 348 349 350 350 345 339 331 329 331 333 333 333 334 332 330 328 327 328 329 331 333 334 333 333 333 333 333 332 329 325 323 321 321
347 347 347 348 349 348 348 349 350 344 337 327 328 329 329 330 329 329 328 326 326 326 329 329 330 331 330 330 329 329 330 330 327 325 322 321 319 318
345 345 346 346 348 349 349 349 346 342 336 328 326 327 327 328 328 327 326 327 325 324 325 327 328 328 327 327 327 327 326 325 324 322 320 319 317 316
342 342 344 345 346 347 347 345 342 338 334 328 325 325 325 326 327 327 326 326 325 324 324 325 326 326 326 325 326 325 325 323 322 320 318 316 313 313
341 340 341 343 345 345 344 343 341 337 332 329 325 324 323 324 325 325 326 325 324 323 322 322 323 323 323 322 321 320 319 317 315 314 313 311 309 307
338 337 335 333 337 340 343 342 340 338 335 333 328 324 322 322 323 323 324 324 324 323 323 320 319 318 316 315 314 313 312 311 310 309 307 305 303 302
337 336 337 335 332 333 338 340 341 341 338 335 329 325 323 322 323 322 322 322 326 325 323 321 320 319 316 315 312 309 308 306 305 304 303 301 301 299
336 336 335 331 335 335 331 333 335 337 337 335 332 329 326 326 323 321 322 328 327 325 325 324 322 321 319 316 313 306 304 303 302 302 301 301 300 300
337 336 335 336 336 335 337 336 334 333 333 333 334 332 331 326 325 325 326 326 326 326 325 325 323 321 320 317 311 306 304 303 302 301 301 301 300 302
336 335 333 334 334 327 335 335 335 332 332 332 332 334 332 329 328 324 324 324 328 328 327 327 324 323 320 317 313 308 305 304 303 303 303 302 302 303
335 336 333 328 332 325 333 335 333 333 332 330 330 331 331 329 327 325 324 325 327 329 327 327 326 324 321 321 317 311 308 305 305 304 304 304 303 303
337 336 336 330 324 323 324 332 333 333 331 331 330 331 330 330 328 326 327 326 329 328 328 326 327 326 324 324 318 318 312 310 307 305 304 304 305 305
338 336 334 330 326 322 322 322 324 328 328 329 330 330 329 330 328 327 327 329 329 328 329 327 327 326 325 324 324 320 317 314 313 309 307 306 305 304
335 335 334 331 329 324 321 317 314 316 322 326 327 327 326 327 328 328 328 328 328 329 328 328 327 326 324 325 324 323 323 319 317 314 313 312 310 306
331 331 331 330 328 325 323 319 314 317 320 322 323 325 323 321 321 323 324 323 321 319 320 322 326 325 325 324 324 323 322 322 321 317 317 317 316 313
332 331 330 330 326 326 325 324 322 320 319 319 318 321 322 320 319 318 317 317 317 317 315 318 319 322 323 322 322 317 318 320 321 321 320 321 318 316
332 330 329 329 327 327 326 327 327 326 323 320 321 322 322 322 321 321 320 318 318 317 316 316 318 318 318 319 317 315 313 313 314 315 318 318 317 318
327 327 327 327 327 326 326 326 326 325 324 325 325 324 323 323 322 322 322 321 321 320 318 316 316 316 317 315 313 312 313 314 314 316 315 315 316 314
329 328 328 326 327 325 325 325 325 324 324 324 323 323 321 321 320 321 319 318 320 321 320 317 316 316 318 319 317 316 314 312 314 315 316 315 314 313
331 330 327 324 324 324 324 323 322 319 319 319 318 317 317 317 316 314 315 316 316 317 319 318 316 315 315 315 317 317 316 314 312 313 315 315 316 315
329 327 327 325 322 321 320 319 318 317 315 314 314 314 313 312 312 311 312 314 315 314 314 314 315 314 316 315 315 316 316 315 313 312 311 314 315 316
327 328 326 325 323 321 320 318 316 315 315 314 314 313 312 312 312 314 314 314 313 314 314 314 315 315 315 316 316 315 314 315 315 312 311 311 311 313
Wind_Speed
6 7 8 10 9 11 13 12 11 4 2 2 2 8 9 7 8 10 9 8 8 8 9 10 11 12 12 14 15 15 17 20 20 14 14 16 16 14
5 5 7 8 10 11 12 10 13 9 3 4 3 8 8 9 7 8 9 9 8 8 9 11 12 13 12 12 13 13 14 14 14 12 12 13 13 14
3 4 5 6 7 8 9 8 10 12 9 5 11 12 11 11 10 9 9 11 12 11 11 11 12 12 11 11 12 13 14 14 13 12 11 11 12 14
4 3 4 5 4 2 5 7 11 9 11 13 15 12 13 10 9 9 10 9 8 10 10 10 10 10 11 12 12 13 13 13 12 11 9 8 11 13
3 4 5 7 5 4 5 9 9 8 11 15 11 15 14 14 14 13 11 10 8 10 9 10 11 10 10 11 11 11 11 10 9 9 9 9 9 11
2 3 5 5 5 4 6 8 8 9 10 16 10 12 15 15 15 15 11 10 11 10 8 8 8 9 8 8 8 9 9 9 9 9 9 9 10 10
3 4 5 4 1 2 3 6 10 11 11 12 11 10 12 16 15 11 12 11 11 11 9 9 8 7 7 8 8 9 9 9 9 9 9 9 9 10
3 2 2 6 4 1 2 4 5 6 12 11 10 13 14 15 14 17 16 13 11 12 11 11 10 9 8 8 9 9 9 9 9 10 10 10 10 10
2 2 2 4 2 3 3 2 4 5 6 11 11 14 14 19 17 21 20 16 10 12 15 13 12 12 9 14 9 9 10 10 10 10 10 11 11 12
2 2 3 1 1 1 2 4 3 2 4 5 8 12 15 19 20 19 13 15 9 9 17 6 11 12 13 10 12 11 12 12 11 11 12 12 12 12
3 4 3 2 3 4 2 1 6 3 6 8 7 8 13 15 21 20 15 16 11 12 15 11 12 8 15 15 15 15 14 14 13 14 14 14 14 14
7 8 7 6 4 4 3 3 4 6 4 4 7 9 12 15 21 24 22 21 15 11 15 19 16 15 8 15 20 20 20 19 18 17 17 17 17 17
8 10 9 8 7 7 7 4 5 4 5 6 7 8 10 12 17 21 19 20 19 17 8 19 17 18 14 9 22 25 26 23 25 24 22 22 23 22
9 6 2 7 5 7 7 9 11 9 9 11 12 13 13 14 15 19 22 21 21 18 12 18 17 20 20 17 11 24 25 25 26 28 27 28 27 27
11 7 6 8 8 10 12 13 12 10 14 14 14 13 13 14 17 18 18 19 17 16 13 12 19 17 20 19 19 18 26 27 29 28 27 27 28 32
20 19 15 11 11 11 14 17 16 15 16 16 17 15 12 11 12 13 13 16 17 18 20 19 19 19 20 21 21 23 24 20 30 33 32 31 31 31
12 14 12 14 15 18 19 17 18 16 19 19 19 18 14 15 16 16 18 18 19 17 18 15 18 19 22 24 20 18 14 22 25 32 33 29 34 34
12 12 15 18 16 17 19 19 20 19 18 18 21 20 20 17 18 18 19 20 19 19 19 18 16 15 19 23 24 21 20 22 23 23 21 24 21 26
9 10 14 16 18 19 20 22 21 20 21 22 21 21 19 16 17 15 20 22 22 22 21 20 21 21 14 12 22 30 28 23 23 21 23 22 22 24
5 6 9 10 12 13 17 17 18 22 21 21 20 17 21 23 22 16 19 19 18 21 22 22 23 23 21 16 19 22 36 32 26 24 23 27 28 27
1 2 5 7 9 10 11 12 14 15 16 20 24 25 27 24 19 19 20 25 27 31 23 20 20 24 25 24 23 24 21 40 36 30 24 25 25 29
1 1 2 3 3 5 5 7 8 9 11 14 17 16 17 22 24 27 25 22 23 24 15 20 23 20 21 27 25 26 26 25 42 39 36 32 25 20
10 1 1 1 1 1 2 3 4 5 6 9 12 16 17 19 21 21 23 23 23 23 22 25 21 30 32 30 31 29 29 28 25 36 39 38 43 36
Wind_Direction
254 246 252 261 259 240 239 228 199 162 136 134 114 104 116 124 135 131 131 128 123 123 128 131 132 127 128 131 134 132 138 137 137 136 124 119 108 103
279 278 267 264 258 246 241 228 206 177 136 144 137 135 137 132 136 137 128 123 120 123 131 133 134 138 143 134 129 136 141 148 148 143 133 128 117 108
290 281 290 275 267 242 228 220 192 166 139 126 142 147 134 140 131 126 132 130 126 124 128 131 136 137 137 139 138 138 145 149 145 138 133 132 121 115
356 1 338 335 317 263 193 165 150 151 151 142 149 151 147 148 142 134 125 122 134 137 138 136 137 137 140 140 142 145 148 147 143 141 141 143 128 122
11 12 0 11 19 50 117 135 143 147 147 157 143 164 158 162 154 143 143 144 140 143 142 142 143 146 148 147 148 151 154 160 161 159 160 155 148 133
78 40 32 22 26 60 111 116 126 136 141 140 144 156 162 169 163 155 151 153 153 152 145 159 152 161 166 169 168 170 169 167 163 165 168 165 159 151
43 35 47 48 97 100 96 155 155 150 160 160 164 162 166 168 173 171 162 168 174 173 167 167 160 157 175 170 173 172 172 172 172 172 173 172 169 161
89 63 45 46 39 94 174 144 152 177 172 171 177 178 182 183 181 178 174 175 184 200 179 185 183 181 184 187 193 185 182 181 181 180 177 172 169 163
358 360 286 80 47 48 54 110 206 194 180 187 192 198 187 193 186 185 191 210 188 190 198 186 195 192 176 183 206 195 188 185 184 183 180 176 173 170
295 306 321 1 205 81 194 123 95 144 200 197 211 207 203 202 198 193 212 194 233 186 198 210 196 198 178 186 203 201 193 189 189 188 186 184 182 180
251 262 257 271 243 217 277 172 154 174 207 214 213 195 197 195 204 190 188 190 227 211 200 207 209 217 180 182 204 206 202 199 198 196 194 193 191 194
223 223 247 223 238 234 258 247 244 179 207 197 214 203 202 203 200 204 191 196 214 218 211 207 202 197 193 204 198 206 207 210 209 210 206 203 202 206
255 219 231 208 228 220 224 265 255 186 210 210 210 207 204 201 205 209 206 209 220 226 215 209 217 203 211 197 191 209 210 212 214 216 217 216 215 213
254 288 310 186 216 232 236 252 251 238 248 233 219 205 207 202 211 215 219 224 232 242 246 219 228 201 209 224 203 195 202 204 217 211 220 223 224 226
255 277 253 218 231 229 234 237 252 242 250 245 246 242 237 228 211 209 227 234 240 243 236 224 227 240 223 222 224 216 202 208 210 210 208 214 227 226
238 248 248 228 228 225 238 239 233 237 248 254 267 254 246 233 226 237 233 233 242 242 239 231 233 242 255 247 237 223 203 197 207 214 216 216 219 221
236 247 253 228 238 238 238 237 239 237 239 251 256 276 253 234 228 226 229 233 235 241 241 221 229 237 245 248 264 259 235 223 214 208 214 221 217 218
246 236 232 228 235 235 227 231 236 235 235 239 247 248 249 249 241 227 234 235 243 247 246 247 212 234 239 243 241 247 243 245 248 234 229 220 233 224
245 253 242 237 237 241 240 238 241 242 248 245 247 246 252 265 287 248 239 236 233 235 237 244 246 215 232 240 238 233 240 253 240 233 220 222 231 238
239 252 255 250 252 249 253 246 245 249 248 248 245 248 250 259 271 267 282 293 273 253 238 236 237 242 232 242 249 240 224 224 238 233 231 216 222 235
290 281 255 259 261 259 257 254 269 269 263 262 258 256 250 248 265 270 270 275 293 281 255 246 248 246 248 254 256 252 264 228 226 227 233 232 222 218
46 299 250 262 282 285 278 272 275 275 267 258 258 258 258 253 251 260 260 265 278 290 289 274 272 273 270 245 243 252 250 246 224 227 231 233 234 243
36 3 123 86 23 306 277 288 279 274 268 264 266 266 263 255 256 250 247 257 265 263 266 272 283 262 251 264 244 239 247 252 231 222 232 235 237 242